Regional Weather Roundup
Issued by NWS

Home | Current Version | Previous Version | Graphics & Text | Print | Product List | Glossary On
Versions: 1 2 3 4 5 6 7 8 9 10 11 12 13 14 15 16 17 18 19 20 21 22 23 24 25 26 27 28 29 30 31 32 33 34 35 36 37 38 39 40 41 42 43 44 45 46 47 48 49 50
000
ASUS43 KOAX 212202
RWRNE

WEATHER ROUNDUP FOR NEBRASKA
NATIONAL WEATHER SERVICE OMAHA NE
500 PM CDT TUE OCT 21 2014

NOTES: SATELLITE DATA IS BEING USED TO AUGMENT CLOUD COVER ABOVE
       12000 FEET.
       "FAIR" INDICATES FEW OR NO CLOUDS BELOW 12,000 FEET WITH NO
       SIGNIFICANT WEATHER AND/OR OBSTRUCTIONS TO VISIBILITY.

  * THESE STATIONS DO NOT REPORT WEATHER SUCH AS RAIN...SNOW OR FOG.

NEZ001>004-019>022-054>056-212300-
NEBRASKA PANHANDLE

CITY           SKY/WX    TMP DP  RH WIND       PRES   REMARKS
SCOTTSBLUFF    MOSUNNY   76  42  29 SE10      29.85F
ALLIANCE       SUNNY     75  44  33 S16       29.86F
CHADRON        MOSUNNY   79  46  31 S16       29.77F
KIMBALL        MOSUNNY   75  38  26 SE13      29.89S
SIDNEY         SUNNY     77  43  29 S13       29.88F
$$

NEZ057>060-069>072-079>082-212300-
SOUTHWEST NEBRASKA

CITY           SKY/WX    TMP DP  RH WIND       PRES   REMARKS
NORTH PLATTE   SUNNY     78  53  41 S16G25    29.89F
IMPERIAL       SUNNY     78  51  38 S22G29    29.89F
LEXINGTON      SUNNY     77  56  48 S20G25    29.93F
MCCOOK         SUNNY     80  53  39 S17G26    29.92F
OGALLALA       SUNNY     81  48  31 S16G23    29.87F
$$

NEZ005>010-023>029-035>040-094-212300-
NORTH CENTRAL NEBRASKA

CITY           SKY/WX    TMP DP  RH WIND       PRES   REMARKS
VALENTINE      SUNNY     77  50  38 S25G32    29.85F
AINSWORTH      SUNNY     74  42  30 S20G28    29.89S
BROKEN BOW     SUNNY     75  56  51 S20G29    29.93F
O`NEILL        SUNNY     76  39  26 S18G25    29.93S
ORD            SUNNY     75  45  34 S16G23    29.93F
THEDFORD       SUNNY     77  54  44 S21G29    29.90S
$$

NEZ041-046>049-061>064-073>077-083>087-212300-
SOUTH CENTRAL NEBRASKA

CITY           SKY/WX    TMP DP  RH WIND       PRES   REMARKS
GRAND ISLAND   SUNNY     76  50  40 S13       29.98S
AURORA         HAZE      76  37  23 S10G18    29.99S VSB 3/4
HASTINGS       SUNNY     75  49  39 S16G22    29.98S
HEBRON         SUNNY     77  39  25 S12G17    30.00S
HOLDREGE       SUNNY     75  53  46 S16       29.95F
KEARNEY *      SUNNY     75  52  43 SE18      29.97F
YORK           SUNNY     75  41  29 S13G18    29.99F
$$

NEZ011>018-030>034-042>045-212300-
NORTHEAST NEBRASKA

CITY           SKY/WX    TMP DP  RH WIND       PRES   REMARKS
NORFOLK        SUNNY     76  42  29 S18       29.97F
ALBION         SUNNY     75  37  25 S20G25    29.97F
BLAIR          SUNNY     74  40  28 SE8       30.04S
COLUMBUS *     SUNNY     75  41  29 S18       30.01S
FREMONT        SUNNY     75  41  29 SE10      30.02S
TEKAMAH        SUNNY     75  41  29 S13       30.02S
WAYNE          SUNNY     76  43  30 S18       29.99S
$$

NEZ050>053-065>068-078-088>093-212300-
SOUTHEAST NEBRASKA

CITY           SKY/WX    TMP DP  RH WIND       PRES   REMARKS
LINCOLN        SUNNY     76  42  29 SE16      30.02F
OMAHA EPPLEY   SUNNY     73  41  31 SE12      30.03F
BEATRICE       SUNNY     75  44  32 S13       30.01F
FALLS CITY     SUNNY     73  37  27 SE7       30.04F
NEBRASKA CITY  SUNNY     72  28  20 SE8       30.05S
PLATTSMOUTH    SUNNY     73  34  23 SE7       30.04F
$$

NEZ044-045-051>053-067-212300-
OMAHA AREA

CITY           SKY/WX    TMP DP  RH WIND       PRES   REMARKS
OMAHA EPPLEY   SUNNY     73  41  31 SE12      30.03F
BLAIR          SUNNY     74  40  28 SE8       30.04S
FREMONT        SUNNY     75  41  29 SE10      30.02S
OFFUTT AFB     SUNNY     73  42  32 SE10      30.03F
PLATTSMOUTH    SUNNY     73  34  23 SE7       30.04F
WAHOO          FAIR      76  38  26 SE14      30.01F
$$



USA.gov is the U.S. government's official web portal to all federal, state and local government web resources and services.